Marion, VA

5:19 AM EDT on April 27, 2018 (GMT -0400)
Mountain Empire

Weather History for KMKJ - March, 2013

Change the Weather History Date:

Sunday, March 10, 2013

  Actual Average (KBLF) Record (KBLF)
Temperature  
Mean Temperature 54 °F -  
Max Temperature 65 °F 50 °F 75 °F (2016)
Min Temperature 42 °F 32 °F 5 °F (1996)
Degree Days  
Heating Degree Days 12    
Growing Degree Days 4 (Base 50)    
Moisture  
Dew Point 30 °F    
Average Humidity 42    
Maximum Humidity 59    
Minimum Humidity 24    
Precipitation  
Precipitation 0.00 in - - ()
Sea Level Pressure  
Sea Level Pressure 30.20 in    
Wind  
Wind Speed 8 mph (East)    
Max Wind Speed 14 mph    
Max Gust Speed 18 mph    
Visibility 10 miles    
Events      
Averages and records for this station are not official NWS values.
T = Trace of Precipitation, MM = Missing Value Source: NWS Daily Summary

Daily Weather History Graph

Daily Weather History Graph

Search for Another Location

Airport or City:

Astronomy

Mar. 10, 2013 Rise Set
Actual Time 7:43 AM EDT 7:28 PM EDT
Civil Twilight 7:17 AM EDT 7:54 PM EDT
Nautical Twilight 6:47 AM EDT 8:24 PM EDT
Astronomical Twilight 6:17 AM EDT 8:54 PM EDT
Moon 6:41 AM EDT (3/10) 6:35 PM EDT (3/10)
Length of Visible Light 12h 36m
Length of Day
11h 45m
Waning Crescent, 2% of the Moon is Illuminated
Mar 10
Waning Crescent
Mar 11
New
Mar 19
First Quarter
Mar 27
Full
Apr 3
Last Quarter

Hourly Weather History & Observations

Time (EDT) Temp. Windchill Dew Point Humidity Pressure Visibility Wind Dir Wind Speed Gust Speed Precip Events Conditions
12:15 AM 42.8 °F 38.6 °F 28.9 °F 58% 30.26 in 10.0 mi ENE 6.9 mph - N/A   Mostly Cloudy
12:35 AM 42.8 °F - 29.1 °F 58% 30.26 in 10.0 mi Calm Calm - N/A   Overcast
12:55 AM 42.8 °F 39.3 °F 29.3 °F 59% 30.26 in 10.0 mi NE 5.8 mph - N/A   Overcast
1:15 AM 43.7 °F 40.3 °F 29.5 °F 57% 30.25 in 10.0 mi ENE 5.8 mph - N/A   Overcast
1:35 AM 43.9 °F 39.3 °F 29.1 °F 56% 30.25 in 10.0 mi ENE 8.1 mph - N/A   Overcast
1:55 AM 44.6 °F 40.7 °F 29.1 °F 55% 30.25 in 10.0 mi ENE 6.9 mph - N/A   Overcast
3:15 AM 45.0 °F 40.1 °F 29.1 °F 54% 30.23 in 10.0 mi NE 9.2 mph - N/A   Overcast
3:35 AM 44.2 °F 40.3 °F 29.3 °F 56% 30.23 in 10.0 mi ENE 6.9 mph - N/A   Overcast
3:55 AM 44.1 °F 39.5 °F 28.8 °F 55% 30.23 in 10.0 mi NE 8.1 mph - N/A   Overcast
4:15 AM 44.1 °F 38.6 °F 28.8 °F 55% 30.22 in 10.0 mi ENE 10.4 mph - N/A   Overcast
4:35 AM 43.0 °F 38.8 °F 29.5 °F 59% 30.22 in 10.0 mi ENE 6.9 mph - N/A   Mostly Cloudy
4:55 AM 43.5 °F 39.4 °F 29.8 °F 59% 30.22 in 10.0 mi ENE 6.9 mph - N/A   Mostly Cloudy
5:15 AM 44.1 °F 40.1 °F 29.5 °F 57% 30.23 in 10.0 mi ENE 6.9 mph - N/A   Overcast
5:35 AM 43.9 °F 38.8 °F 29.3 °F 57% 30.22 in 10.0 mi ENE 9.2 mph - N/A   Overcast
5:55 AM 43.7 °F 39.7 °F 29.1 °F 57% 30.22 in 10.0 mi ENE 6.9 mph - N/A   Overcast
6:15 AM 43.3 °F 39.2 °F 29.3 °F 58% 30.22 in 10.0 mi ENE 6.9 mph - N/A   Mostly Cloudy
6:35 AM 43.0 °F 37.7 °F 29.3 °F 59% 30.22 in 10.0 mi ENE 9.2 mph - N/A   Scattered Clouds
6:55 AM 43.3 °F 38.6 °F 29.3 °F 58% 30.23 in 10.0 mi NE 8.1 mph - N/A   Scattered Clouds
7:15 AM 43.0 °F 40.3 °F 29.5 °F 59% 30.23 in 10.0 mi ENE 4.6 mph - N/A   Clear
8:35 AM 44.8 °F 41.6 °F 30.2 °F 57% 30.24 in 10.0 mi ENE 5.8 mph - N/A   Mostly Cloudy
8:55 AM 45.0 °F 39.7 °F 29.8 °F 55% 30.24 in 10.0 mi NE 10.4 mph - N/A   Unknown
9:15 AM 45.5 °F 40.3 °F 30.4 °F 56% 30.24 in 10.0 mi NE 10.4 mph - N/A   Unknown
9:35 AM 46.6 °F - 31.1 °F 55% 30.24 in 10.0 mi NE 9.2 mph - N/A   Clear
9:55 AM 47.8 °F - 31.6 °F 53% 30.25 in 10.0 mi NE 9.2 mph - N/A   Clear
10:15 AM 49.3 °F - 31.6 °F 51% 30.25 in 10.0 mi ENE 8.1 mph - N/A   Scattered Clouds
10:35 AM 50.9 °F - 32.0 °F 48% 30.25 in 10.0 mi ENE 8.1 mph - N/A   Clear
10:55 AM 52.7 °F - 32.0 °F 45% 30.25 in 10.0 mi NE 8.1 mph - N/A   Clear
11:15 AM 55.8 °F - 31.6 °F 40% 30.24 in 10.0 mi East 8.1 mph - N/A   Clear
11:35 AM 58.6 °F - 30.0 °F 34% 30.23 in 10.0 mi East 11.5 mph - N/A   Clear
11:55 AM 59.4 °F - 28.9 °F 31% 30.23 in 10.0 mi ESE 10.4 mph - N/A   Clear
12:15 PM 61.3 °F - 30.2 °F 31% 30.22 in 10.0 mi ESE 10.4 mph - N/A   Clear
12:35 PM 62.6 °F - 29.8 °F 29% 30.21 in 10.0 mi East 11.5 mph 17.3 mph N/A   Clear
12:55 PM 64.2 °F - 30.2 °F 28% 30.21 in 10.0 mi East 11.5 mph 16.1 mph N/A   Clear
1:15 PM 63.9 °F - 28.2 °F 26% 30.21 in 10.0 mi ESE 8.1 mph 17.3 mph N/A   Clear
1:35 PM 65.1 °F - 29.3 °F 26% 30.19 in 10.0 mi ESE 11.5 mph 16.1 mph N/A   Clear
1:55 PM 65.5 °F - 28.2 °F 25% 30.19 in 10.0 mi ESE 9.2 mph - N/A   Clear
2:15 PM 65.7 °F - 28.9 °F 25% 30.18 in 10.0 mi ESE 13.8 mph - N/A   Clear
2:35 PM 65.3 °F - 28.4 °F 25% 30.17 in 10.0 mi ESE 13.8 mph 18.4 mph N/A   Clear
2:55 PM 65.5 °F - 28.4 °F 25% 30.16 in 10.0 mi ESE 11.5 mph 17.3 mph N/A   Scattered Clouds
3:15 PM 64.8 °F - 27.9 °F 25% 30.15 in 10.0 mi ESE 11.5 mph 17.3 mph N/A   Scattered Clouds
3:35 PM 64.8 °F - 27.9 °F 25% 30.15 in 10.0 mi SE 10.4 mph 18.4 mph N/A   Clear
3:55 PM 64.6 °F - 27.9 °F 25% 30.15 in 10.0 mi ESE 11.5 mph 18.4 mph N/A   Clear
4:15 PM 65.8 °F - 28.2 °F 24% 30.15 in 10.0 mi SE 10.4 mph 16.1 mph N/A   Clear
4:35 PM 64.4 °F - 27.7 °F 25% 30.16 in 10.0 mi SE 6.9 mph - N/A   Clear
4:55 PM 65.3 °F - 27.3 °F 24% 30.16 in 10.0 mi SSE 4.6 mph 16.1 mph N/A   Clear
5:15 PM 64.4 °F - 27.7 °F 25% 30.16 in 10.0 mi ESE 8.1 mph - N/A   Clear
5:35 PM 63.1 °F - 27.3 °F 26% 30.15 in 10.0 mi SE 6.9 mph - N/A   Clear
5:55 PM 62.8 °F - 27.7 °F 27% 30.15 in 10.0 mi SE 3.5 mph - N/A   Clear
6:15 PM 62.1 °F - 28.6 °F 28% 30.15 in 10.0 mi SE 9.2 mph - N/A   Clear
6:35 PM 61.3 °F - 28.9 °F 29% 30.15 in 10.0 mi SE 8.1 mph - N/A   Clear
6:55 PM 60.3 °F - 28.4 °F 30% 30.15 in 10.0 mi SE 9.2 mph 18.4 mph N/A   Clear
7:15 PM 59.2 °F - 28.6 °F 31% 30.17 in 10.0 mi SE 5.8 mph - N/A   Clear
7:35 PM 58.6 °F - 28.8 °F 32% 30.18 in 10.0 mi SE 10.4 mph 16.1 mph N/A   Clear
7:55 PM 58.1 °F - 28.8 °F 33% 30.18 in 10.0 mi SE 8.1 mph - N/A   Clear
8:15 PM 57.2 °F - 29.5 °F 35% 30.18 in 10.0 mi SE 9.2 mph 16.1 mph N/A   Clear
8:35 PM 57.0 °F - 29.8 °F 36% 30.18 in 10.0 mi SE 8.1 mph 18.4 mph N/A   Clear
8:55 PM 55.4 °F - 31.6 °F 40% 30.18 in 10.0 mi East 3.5 mph - N/A   Clear
9:15 PM 54.9 °F - 31.6 °F 41% 30.19 in 10.0 mi SE 3.5 mph - N/A   Clear
9:35 PM 55.4 °F - 31.6 °F 40% 30.20 in 10.0 mi ESE 5.8 mph - N/A   Clear
10:15 PM 54.7 °F - 31.1 °F 41% 30.18 in 10.0 mi East 6.9 mph - N/A   Clear
10:35 PM 53.6 °F - 30.9 °F 42% 30.17 in 10.0 mi East 6.9 mph - N/A   Clear
10:55 PM 54.0 °F - 30.4 °F 41% 30.16 in 10.0 mi East 9.2 mph - N/A   Clear
11:15 PM 53.8 °F - 30.6 °F 41% 30.16 in 10.0 mi ESE 6.9 mph - N/A   Clear
11:35 PM 54.7 °F - 30.7 °F 40% 30.16 in 10.0 mi East 8.1 mph - N/A   Clear
11:55 PM 54.3 °F - 30.9 °F 41% 30.16 in 10.0 mi East 8.1 mph - N/A   Clear
12:15 AM 54.5 °F - 31.1 °F 41% 30.15 in 10.0 mi ESE 6.9 mph - N/A   Clear
12:35 AM 54.5 °F - 31.1 °F 41% 30.15 in 10.0 mi ESE 6.9 mph - N/A   Clear
12:55 AM 53.4 °F - 31.8 °F 44% 30.14 in 10.0 mi East 8.1 mph - N/A   Clear